NW Arkansas Airport, AR

3:23 PM CDT on May 22, 2017 (GMT -0500)
Northwest Arkansas Regional

Weather History for KXNA - February, 2012

Change the Weather History Date:

Tuesday, February 14, 2012

  Actual Average (KVBT) Record (KVBT)
Temperature  
Mean Temperature 42 °F -  
Max Temperature 53 °F 52 °F 74 °F (1954)
Min Temperature 32 °F 29 °F 9 °F (1948)
Degree Days  
Heating Degree Days 22    
Moisture  
Dew Point 34 °F    
Average Humidity 81    
Maximum Humidity 100    
Minimum Humidity 52    
Precipitation  
Precipitation 0.00 in - - ()
Sea Level Pressure  
Sea Level Pressure 29.92 in    
Wind  
Wind Speed 6 mph (SSW)    
Max Wind Speed 9 mph    
Max Gust Speed -    
Visibility 7 miles    
Events      
Averages and records for this station are not official NWS values.
T = Trace of Precipitation, MM = Missing Value Source: NWS Daily Summary

Daily Weather History Graph

Daily Weather History Graph

Search for Another Location

Airport or City:

Trip Planner

Search our weather history database for the weather conditions in past years. The results will help you decide how hot, cold, wet, or windy it might be!

Date:

Astronomy

Feb. 14, 2012 Rise Set
Actual Time 7:06 AM CST 5:56 PM CST
Civil Twilight 6:40 AM CST 6:23 PM CST
Nautical Twilight 6:09 AM CST 6:53 PM CST
Astronomical Twilight 5:40 AM CST 7:23 PM CST
Moon 12:48 AM CST (2/14) 11:07 AM CST (2/14)
Length of Visible Light 11h 43m
Length of Day
10h 50m
Waning Gibbous, 50% of the Moon is Illuminated
Feb 14
Waning Gibbous
Feb 21
New
Feb 29
First Quarter
Mar 8
Full
Mar 14
Last Quarter

Hourly Weather History & Observations

Time (CST) Temp. Windchill Dew Point Humidity Pressure Visibility Wind Dir Wind Speed Gust Speed Precip Events Conditions
12:53 AM 33.1 °F 26.1 °F 33.1 °F 100% 29.88 in 3.0 mi SW 8.1 mph - N/A   Overcast
1:02 AM 33.8 °F 27.0 °F 33.8 °F 100% 29.85 in 2.0 mi SW 8.1 mph - N/A   Overcast
1:29 AM 33.8 °F 27.7 °F 33.8 °F 100% 29.86 in 1.5 mi SW 6.9 mph - N/A   Overcast
1:53 AM 33.1 °F 28.7 °F 33.1 °F 100% 29.89 in 1.5 mi WSW 4.6 mph - N/A   Overcast
2:05 AM 33.8 °F 27.0 °F 33.8 °F 100% 29.87 in 2.5 mi WSW 8.1 mph - N/A   Overcast
2:33 AM 33.8 °F 26.4 °F 33.8 °F 100% 29.88 in 4.0 mi WSW 9.2 mph - N/A   Overcast
3:50 AM 33.8 °F 28.6 °F 33.8 °F 100% 29.87 in 5.0 mi West 5.8 mph - N/A   Overcast
3:53 AM 34.0 °F 29.8 °F 33.1 °F 96% 29.89 in 5.0 mi West 4.6 mph - N/A   Overcast
4:53 AM 34.0 °F 27.2 °F 32.0 °F 92% 29.91 in 7.0 mi West 8.1 mph - N/A   Overcast
6:24 AM 33.8 °F 30.8 °F 30.2 °F 87% 29.91 in 6.0 mi NW 3.5 mph - N/A   Overcast
6:53 AM 33.1 °F 28.7 °F 30.9 °F 92% 29.94 in 6.0 mi WNW 4.6 mph - N/A   Overcast
7:53 AM 32.0 °F - 30.0 °F 92% 29.97 in 5.0 mi Calm Calm - N/A   Overcast
8:53 AM 33.1 °F - 30.0 °F 89% 29.98 in 5.0 mi Calm Calm - N/A   Overcast
9:53 AM 36.0 °F 32.1 °F 32.0 °F 86% 29.98 in 7.0 mi NE 4.6 mph - N/A   Mostly Cloudy
10:08 AM 37.4 °F - 33.8 °F 87% 29.96 in 8.0 mi Calm Calm - N/A   Scattered Clouds
10:53 AM 39.0 °F - 32.0 °F 76% 29.99 in 10.0 mi Calm Calm - N/A   Clear
11:53 AM 44.1 °F 42.5 °F 34.0 °F 68% 29.98 in 10.0 mi East 3.5 mph - N/A   Clear
12:53 PM 46.0 °F 43.9 °F 34.0 °F 63% 29.95 in 10.0 mi WSW 4.6 mph - N/A   Clear
1:53 PM 50.0 °F - 34.0 °F 54% 29.92 in 10.0 mi SE 4.6 mph - N/A   Clear
2:53 PM 52.0 °F - 36.0 °F 54% 29.92 in 10.0 mi Variable 5.8 mph - N/A   Clear
3:53 PM 53.1 °F - 36.0 °F 52% 29.91 in 10.0 mi South 5.8 mph - N/A   Clear
4:53 PM 53.1 °F - 37.0 °F 55% 29.90 in 10.0 mi South 8.1 mph - N/A   Clear
5:53 PM 48.0 °F - 37.9 °F 68% 29.90 in 10.0 mi SSW 4.6 mph - N/A   Clear
6:53 PM 45.0 °F 41.2 °F 35.1 °F 68% 29.92 in 10.0 mi South 6.9 mph - N/A   Clear
7:53 PM 44.1 °F 40.8 °F 34.0 °F 68% 29.92 in 10.0 mi SSE 5.8 mph - N/A   Partly Cloudy
8:53 PM 45.0 °F 42.6 °F 33.1 °F 63% 29.94 in 10.0 mi South 4.6 mph - N/A   Overcast
9:53 PM 42.1 °F 39.2 °F 35.1 °F 76% 29.93 in 10.0 mi SSE 4.6 mph - N/A   Scattered Clouds
10:53 PM 43.0 °F 39.5 °F 35.1 °F 74% 29.93 in 10.0 mi SSE 5.8 mph - N/A   Partly Cloudy
11:53 PM 45.0 °F 41.2 °F 37.9 °F 76% 29.92 in 10.0 mi South 6.9 mph - N/A   Mostly Cloudy